Location: Pella
(41.4080°N, 92.9160°W)
Time: 14:36:46
(UTC-06:00)

ASTRO E2 - Pass Details

Date: 28 September 2017
Orbit: 514 x 520 km, 31.4° (Epoch: 12 December)

Event Time Altitude Azimuth Distance (km) Brightness Sun altitude
Exits shadow 05:56:46 14° 217° (SW) 1,492 4.6 -13.7°
Maximum altitude 05:58:43 19° 181° (S) 1,255 4.5 -13.3°
Drops below altitude 10° 06:01:38 10° 135° (SE) 1,740 5.9 -12.8°
Sets 06:04:19 0° 117° (ESE) 2,627 7.3 -12.3°
